Location: Brantley
(31.5822°N, 86.2569°W)
Time: 06:52:11
(UTC+00:00)

Vanguard 3 - Pass Details

Date: 21 February 2026
Orbit: 507 x 3205 km, 33.4° (Epoch: 9 March)

Event Time Altitude Azimuth Distance (km) Brightness Sun altitude
Rises 01:51:54 0° 283° (WNW) 3,763 11.8 -29.6°
Reaches altitude 10° 01:55:10 10° 279° (W) 2,454 10.5 -30.3°
Enters shadow 01:59:02 37° 251° (WSW) 1,025 8.0 -31.1°
Maximum altitude 02:00:19 49° 205° (SSW) 804 - -31.3°
Drops below altitude 10° 02:04:01 10° 129° (SE) 1,767 - -32.1°
Sets 02:06:02 0° 123° (ESE) 2,596 - -32.6°
